Nucla Hopkins Field Airport, CO

6:20 PM MDT on April 27, 2017 (GMT -0600)
Nucla Hopkins Field Airport

Weather History for KAIB - June, 2014

Change the Weather History Date:

Sunday, June 15, 2014

  Actual Average (KTEX) Record (KTEX)
Temperature  
Mean Temperature 61 °F -  
Max Temperature 80 °F 66 °F 77 °F (2007)
Min Temperature 42 °F 41 °F 30 °F (2001)
Degree Days  
Heating Degree Days 4    
Growing Degree Days 11 (Base 50)    
Moisture  
Dew Point 15 °F    
Average Humidity 18    
Maximum Humidity 42    
Minimum Humidity 6    
Precipitation  
Precipitation 0.00 in - - ()
Sea Level Pressure  
Sea Level Pressure 29.97 in    
Wind  
Wind Speed 10 mph (SSE)    
Max Wind Speed 24 mph    
Max Gust Speed 34 mph    
Visibility 10 miles    
Events      
Averages and records for this station are not official NWS values.
T = Trace of Precipitation, MM = Missing Value Source: NWS Daily Summary

Daily Weather History Graph

Daily Weather History Graph

Search for Another Location

Airport or City:

Trip Planner

Search our weather history database for the weather conditions in past years. The results will help you decide how hot, cold, wet, or windy it might be!

Date:

Astronomy

Jun. 15, 2014 Rise Set
Actual Time 5:50 AM MDT 8:39 PM MDT
Civil Twilight 5:18 AM MDT 9:10 PM MDT
Nautical Twilight 4:39 AM MDT 9:50 PM MDT
Astronomical Twilight 3:54 AM MDT 10:35 PM MDT
Moon 10:54 PM MDT (6/15) 8:45 AM MDT (6/15)
Length of Visible Light 15h 52m
Length of Day
14h 48m
Waning Gibbous, 91% of the Moon is Illuminated
Jun 15
Waning Gibbous
Jun 19
Last Quarter
Jun 27
New
Jul 5
First Quarter
Jul 12
Full

Hourly Weather History & Observations

Time (MDT) Temp. Windchill Dew Point Humidity Pressure Visibility Wind Dir Wind Speed Gust Speed Precip Events Conditions
12:15 AM 53.6 °F - 19.4 °F 26% 30.02 in 10.0 mi ESE 9.2 mph - N/A   Clear
12:35 AM 53.6 °F - 19.4 °F 26% 30.02 in 10.0 mi ESE 9.2 mph - N/A   Clear
12:55 AM 51.8 °F - 19.4 °F 28% 30.02 in 10.0 mi ESE 8.1 mph - N/A   Clear
1:15 AM 51.8 °F - 21.2 °F 30% 30.02 in 10.0 mi ESE 11.5 mph - N/A   Clear
1:35 AM 51.8 °F - 21.2 °F 30% 30.01 in 10.0 mi ESE 11.5 mph - N/A   Clear
1:55 AM 50.0 °F - 21.2 °F 32% 30.01 in 10.0 mi ESE 10.4 mph - N/A   Clear
2:15 AM 50.0 °F - 19.4 °F 30% 30.01 in 10.0 mi East 11.5 mph - N/A   Clear
2:35 AM 50.0 °F - 19.4 °F 30% 30.02 in 10.0 mi ESE 8.1 mph - N/A   Clear
2:55 AM 50.0 °F - 21.2 °F 32% 30.02 in 10.0 mi ESE 4.6 mph - N/A   Clear
3:15 AM 50.0 °F - 21.2 °F 32% 30.01 in 10.0 mi ESE 6.9 mph - N/A   Clear
3:35 AM 50.0 °F - 19.4 °F 30% 30.01 in 10.0 mi East 5.8 mph - N/A   Clear
3:55 AM 48.2 °F - 19.4 °F 32% 30.02 in 10.0 mi ESE 6.9 mph - N/A   Clear
4:15 AM 44.6 °F 42.2 °F 21.2 °F 39% 30.02 in 10.0 mi ESE 4.6 mph - N/A   Clear
4:35 AM 44.6 °F 41.4 °F 21.2 °F 39% 30.02 in 10.0 mi ESE 5.8 mph - N/A   Clear
5:15 AM 44.6 °F 41.4 °F 21.2 °F 39% 30.02 in 10.0 mi ESE 5.8 mph - N/A   Clear
5:35 AM 42.8 °F 38.6 °F 21.2 °F 42% 30.03 in 10.0 mi East 6.9 mph - N/A   Clear
5:55 AM 42.8 °F 41.1 °F 21.2 °F 42% 30.03 in 10.0 mi East 3.5 mph - N/A   Clear
6:15 AM 42.8 °F 40.1 °F 21.2 °F 42% 30.03 in 10.0 mi East 4.6 mph - N/A   Clear
6:35 AM 44.6 °F 40.7 °F 21.2 °F 39% 30.04 in 10.0 mi ESE 6.9 mph - N/A   Clear
6:55 AM 46.4 °F 41.9 °F 21.2 °F 37% 30.04 in 10.0 mi East 9.2 mph - N/A   Clear
7:15 AM 48.2 °F - 23.0 °F 37% 30.04 in 10.0 mi ESE 5.8 mph - N/A   Clear
7:35 AM 50.0 °F - 23.0 °F 35% 30.04 in 10.0 mi ENE 4.6 mph - N/A   Clear
7:55 AM 53.6 °F - 21.2 °F 28% 30.04 in 10.0 mi ESE 3.5 mph - N/A   Clear
8:15 AM 53.6 °F - 23.0 °F 30% 30.04 in 10.0 mi Calm Calm - N/A   Clear
8:35 AM 55.4 °F - 21.2 °F 26% 30.04 in 10.0 mi Calm Calm - N/A   Clear
8:55 AM 57.2 °F - 21.2 °F 25% 30.03 in 10.0 mi Calm Calm - N/A   Clear
9:15 AM 59.0 °F - 26.6 °F 29% 30.03 in 10.0 mi Calm Calm - N/A   Clear
9:35 AM 60.8 °F - 24.8 °F 25% 30.03 in 10.0 mi Calm Calm - N/A   Clear
9:55 AM 62.6 °F - 21.2 °F 20% 30.03 in 10.0 mi Calm Calm - N/A   Clear
10:15 AM 64.4 °F - 23.0 °F 21% 30.03 in 10.0 mi Calm Calm - N/A   Clear
10:35 AM 66.2 °F - 23.0 °F 19% 30.03 in 10.0 mi North 4.6 mph - N/A   Clear
10:55 AM 68.0 °F - 23.0 °F 18% 30.03 in 10.0 mi NNW 5.8 mph - N/A   Clear
11:15 AM 68.0 °F - 24.8 °F 20% 30.03 in 10.0 mi North 8.1 mph - N/A   Clear
11:35 AM 69.8 °F - 21.2 °F 16% 30.02 in 10.0 mi NNW 5.8 mph - N/A   Clear
11:55 AM 73.4 °F - 21.2 °F 14% 30.01 in 10.0 mi North 6.9 mph - N/A   Clear
12:15 PM 75.2 °F - 12.2 °F 9% 30.00 in 10.0 mi West 8.1 mph - N/A   Clear
12:35 PM 77.0 °F - 6.8 °F 7% 30.00 in 10.0 mi SSW 13.8 mph 19.6 mph N/A   Clear
12:55 PM 78.8 °F - 10.4 °F 7% 30.00 in 10.0 mi SSW 13.8 mph 25.3 mph N/A   Clear
1:15 PM 78.8 °F - 8.6 °F 7% 29.99 in 10.0 mi SSW 15.0 mph 21.9 mph N/A   Clear
1:35 PM 78.8 °F - 8.6 °F 7% 29.98 in 10.0 mi South 19.6 mph 28.8 mph N/A   Clear
1:55 PM 78.8 °F - 8.6 °F 7% 29.98 in 10.0 mi South 19.6 mph 25.3 mph N/A   Clear
2:15 PM 78.8 °F - 8.6 °F 7% 29.98 in 10.0 mi South 20.7 mph 32.2 mph N/A   Clear
2:35 PM 80.6 °F - 8.6 °F 6% 29.97 in 10.0 mi SSW 16.1 mph 27.6 mph N/A   Clear
2:55 PM 80.6 °F - 8.6 °F 6% 29.97 in 10.0 mi SSW 13.8 mph 33.4 mph N/A   Clear
3:15 PM 80.6 °F - 8.6 °F 6% 29.97 in 10.0 mi SW 15.0 mph 26.5 mph N/A   Clear
3:35 PM 80.6 °F - 8.6 °F 6% 29.97 in 10.0 mi WSW 19.6 mph 34.5 mph N/A   Clear
3:55 PM 80.6 °F - 8.6 °F 6% 29.96 in 10.0 mi SW 23.0 mph 29.9 mph N/A   Clear
4:15 PM 80.6 °F - 8.6 °F 6% 29.95 in 10.0 mi SW 19.6 mph 29.9 mph N/A   Clear
4:35 PM 80.6 °F - 8.6 °F 6% 29.94 in 10.0 mi SW 20.7 mph 27.6 mph N/A   Clear
4:55 PM 80.6 °F - 8.6 °F 6% 29.93 in 10.0 mi WSW 24.2 mph 29.9 mph N/A   Clear
5:15 PM 80.6 °F - 8.6 °F 6% 29.92 in 10.0 mi South 21.9 mph 29.9 mph N/A   Clear
5:35 PM 80.6 °F - 8.6 °F 6% 29.92 in 10.0 mi SW 11.5 mph 29.9 mph N/A   Clear
5:55 PM 80.6 °F - 8.6 °F 6% 29.91 in 10.0 mi SSW 17.3 mph 26.5 mph N/A   Clear
6:15 PM 80.6 °F - 8.6 °F 6% 29.90 in 10.0 mi SW 18.4 mph 26.5 mph N/A   Clear
6:35 PM 80.6 °F - 8.6 °F 6% 29.89 in 10.0 mi SSW 19.6 mph 28.8 mph N/A   Clear
6:55 PM 80.6 °F - 8.6 °F 6% 29.89 in 10.0 mi SW 13.8 mph 25.3 mph N/A   Clear
7:15 PM 80.6 °F - 8.6 °F 6% 29.89 in 10.0 mi SW 21.9 mph 27.6 mph N/A   Clear
7:35 PM 78.8 °F - 8.6 °F 7% 29.89 in 10.0 mi SSW 12.7 mph 25.3 mph N/A   Clear
7:55 PM 78.8 °F - 8.6 °F 7% 29.88 in 10.0 mi SSW 8.1 mph 24.2 mph N/A   Clear
8:15 PM 77.0 °F - 8.6 °F 7% 29.88 in 10.0 mi SW 9.2 mph 19.6 mph N/A   Clear
8:35 PM 75.2 °F - 10.4 °F 8% 29.87 in 10.0 mi South 8.1 mph - N/A   Clear
8:55 PM 73.4 °F - 10.4 °F 9% 29.86 in 10.0 mi SSE 6.9 mph - N/A   Clear
9:15 PM 71.6 °F - 10.4 °F 9% 29.86 in 10.0 mi SSE 5.8 mph - N/A   Clear
9:35 PM 73.4 °F - 10.4 °F 9% 29.86 in 10.0 mi South 11.5 mph - N/A   Clear
9:55 PM 73.4 °F - 10.4 °F 9% 29.88 in 10.0 mi South 17.3 mph 24.2 mph N/A   Clear
10:15 PM 73.4 °F - 10.4 °F 9% 29.88 in 10.0 mi South 16.1 mph 24.2 mph N/A   Clear
10:35 PM 73.4 °F - 10.4 °F 9% 29.89 in 10.0 mi South 16.1 mph 21.9 mph N/A   Clear
10:55 PM 73.4 °F - 10.4 °F 9% 29.89 in 10.0 mi South 19.6 mph 26.5 mph N/A   Clear
11:15 PM 73.4 °F - 12.2 °F 10% 29.90 in 10.0 mi SSW 17.3 mph 28.8 mph N/A   Clear
11:35 PM 73.4 °F - 12.2 °F 10% 29.91 in 10.0 mi SSW 18.4 mph 31.1 mph N/A   Clear
11:55 PM 71.6 °F - 14.0 °F 11% 29.91 in 10.0 mi South 18.4 mph 32.2 mph N/A   Clear